TimeEDT,TemperatureF,Dew PointF,Humidity,Sea Level PressureIn,VisibilityMPH,Wind Direction,Wind SpeedMPH,Gust SpeedMPH,PrecipitationIn,Events,Conditions,WindDirDegrees,DateUTC
12:26 AM,66.2,66.2,100,29.78,5.0,Calm,Calm,-,N/A,,Mostly Cloudy,0,2013-10-06 04:26:00
12:39 AM,66.2,66.2,100,29.79,7.0,South,3.5,-,N/A,,Overcast,190,2013-10-06 04:39:00
1:18 AM,66.2,66.2,100,29.78,10.0,SSW,9.2,-,N/A,,Overcast,210,2013-10-06 05:18:00
1:46 AM,66.2,66.2,100,29.77,10.0,South,4.6,-,N/A,,Overcast,190,2013-10-06 05:46:00
2:00 AM,66.2,66.2,100,29.76,10.0,South,4.6,-,N/A,,Overcast,170,2013-10-06 06:00:00
2:39 AM,66.2,66.2,100,29.76,10.0,South,4.6,-,N/A,,Overcast,170,2013-10-06 06:39:00
2:58 AM,66.2,66.2,100,29.76,10.0,South,3.5,-,N/A,,Overcast,190,2013-10-06 06:58:00
3:19 AM,66.2,66.2,100,29.75,7.0,South,3.5,-,N/A,,Overcast,190,2013-10-06 07:19:00
3:39 AM,66.2,66.2,100,29.75,7.0,SSE,4.6,-,N/A,,Overcast,160,2013-10-06 07:39:00
4:19 AM,66.2,66.2,100,29.74,7.0,South,3.5,-,N/A,,Overcast,180,2013-10-06 08:19:00
4:38 AM,66.2,66.2,100,29.73,7.0,South,3.5,-,N/A,,Overcast,170,2013-10-06 08:38:00
4:59 AM,66.2,66.2,100,29.73,7.0,South,3.5,-,N/A,,Overcast,180,2013-10-06 08:59:00
5:19 AM,66.2,66.2,100,29.73,5.0,Calm,Calm,-,N/A,,Overcast,0,2013-10-06 09:19:00
5:49 AM,66.2,66.2,100,29.72,5.0,SSE,4.6,-,N/A,,Drizzle,160,2013-10-06 09:49:00
6:12 AM,66.2,66.2,100,29.72,5.0,South,5.8,-,N/A,,Overcast,170,2013-10-06 10:12:00
6:19 AM,66.2,66.2,100,29.72,5.0,South,4.6,-,N/A,,Overcast,180,2013-10-06 10:19:00
6:46 AM,66.2,66.2,100,29.72,7.0,SSE,6.9,-,N/A,,Overcast,160,2013-10-06 10:46:00
7:03 AM,66.2,66.2,100,29.71,5.0,SSE,6.9,-,N/A,,Overcast,160,2013-10-06 11:03:00
7:19 AM,66.2,64.4,94,29.71,7.0,SSE,4.6,-,N/A,,Overcast,160,2013-10-06 11:19:00
7:44 AM,64.4,64.4,100,29.71,7.0,SSE,4.6,-,N/A,Rain,Light Rain,160,2013-10-06 11:44:00
7:58 AM,64.4,64.4,100,29.70,5.0,South,6.9,-,N/A,Rain,Rain,170,2013-10-06 11:58:00
8:19 AM,60.8,60.8,100,29.72,7.0,West,10.4,18.4,N/A,Rain,Light Rain,260,2013-10-06 12:19:00
8:38 AM,60.8,59.0,94,29.73,10.0,WSW,9.2,16.1,N/A,,Overcast,250,2013-10-06 12:38:00
8:59 AM,59.0,59.0,100,29.72,10.0,West,5.8,-,N/A,,Overcast,260,2013-10-06 12:59:00
9:18 AM,59.0,59.0,100,29.72,10.0,Calm,Calm,-,N/A,,Overcast,0,2013-10-06 13:18:00
9:39 AM,59.0,57.2,94,29.73,10.0,West,10.4,-,N/A,,Overcast,260,2013-10-06 13:39:00
10:00 AM,57.2,57.2,100,29.72,7.0,WSW,8.1,-,N/A,Rain,Rain,240,2013-10-06 14:00:00
10:19 AM,57.2,57.2,100,29.73,10.0,WSW,5.8,-,N/A,,Overcast,240,2013-10-06 14:19:00
10:59 AM,55.4,55.4,100,29.73,2.5,WSW,6.9,-,N/A,Rain,Rain,240,2013-10-06 14:59:00
11:25 AM,55.4,55.4,100,29.73,3.0,WSW,6.9,-,N/A,,Drizzle,240,2013-10-06 15:25:00
11:58 AM,55.4,53.6,94,29.74,5.0,SW,9.2,-,N/A,Rain,Rain,230,2013-10-06 15:58:00
12:19 PM,53.6,53.6,100,29.74,7.0,WSW,4.6,-,N/A,Rain,Rain,250,2013-10-06 16:19:00
12:41 PM,53.6,53.6,100,29.74,10.0,SW,5.8,-,N/A,Rain,Rain,230,2013-10-06 16:41:00
12:59 PM,53.6,53.6,100,29.74,4.0,Calm,Calm,-,N/A,Rain,Light Rain,0,2013-10-06 16:59:00
1:25 PM,53.6,53.6,100,29.74,10.0,WSW,9.2,-,N/A,Rain,Rain,250,2013-10-06 17:25:00
1:42 PM,53.6,53.6,100,29.73,10.0,SW,3.5,-,N/A,Rain,Rain,230,2013-10-06 17:42:00
2:01 PM,53.6,51.8,94,29.71,10.0,Calm,Calm,-,N/A,,Overcast,0,2013-10-06 18:01:00
2:25 PM,53.6,51.8,94,29.71,10.0,SSW,3.5,-,N/A,,Overcast,210,2013-10-06 18:25:00
2:38 PM,53.6,53.6,100,29.71,10.0,SSW,3.5,-,N/A,Rain,Rain,210,2013-10-06 18:38:00
2:59 PM,55.4,53.6,94,29.70,10.0,South,3.5,-,N/A,,Overcast,190,2013-10-06 18:59:00
3:18 PM,55.4,53.6,94,29.69,10.0,South,3.5,-,N/A,,Overcast,170,2013-10-06 19:18:00
3:41 PM,57.2,53.6,88,29.69,10.0,Calm,Calm,-,N/A,,Overcast,0,2013-10-06 19:41:00
3:58 PM,57.2,53.6,88,29.68,10.0,SSW,3.5,-,N/A,,Mostly Cloudy,200,2013-10-06 19:58:00
4:19 PM,57.2,53.6,88,29.68,10.0,West,3.5,-,N/A,,Mostly Cloudy,270,2013-10-06 20:19:00
4:38 PM,59.0,53.6,82,29.66,10.0,SW,4.6,-,N/A,,Scattered Clouds,220,2013-10-06 20:38:00
4:59 PM,57.2,51.8,82,29.67,10.0,SW,5.8,-,N/A,,Scattered Clouds,230,2013-10-06 20:59:00
5:22 PM,59.0,51.8,77,29.68,10.0,West,5.8,-,N/A,,Mostly Cloudy,260,2013-10-06 21:22:00
5:40 PM,59.0,51.8,77,29.68,10.0,SW,9.2,-,N/A,,Scattered Clouds,230,2013-10-06 21:40:00
5:59 PM,59.0,50.0,72,29.69,10.0,West,6.9,-,N/A,,Mostly Cloudy,270,2013-10-06 21:59:00
6:39 PM,57.2,48.2,72,29.70,10.0,WSW,4.6,-,N/A,,Scattered Clouds,250,2013-10-06 22:39:00
6:59 PM,55.4,46.4,72,29.70,10.0,WSW,4.6,-,N/A,,Clear,240,2013-10-06 22:59:00
7:18 PM,53.6,46.4,77,29.70,10.0,WSW,3.5,-,N/A,,Clear,240,2013-10-06 23:18:00
8:19 PM,48.2,48.2,100,29.70,10.0,Calm,Calm,-,N/A,,Clear,0,2013-10-07 00:19:00
8:38 PM,46.4,46.4,100,29.70,10.0,Calm,Calm,-,N/A,,Clear,0,2013-10-07 00:38:00
9:06 PM,48.2,48.2,100,29.70,10.0,Calm,Calm,-,N/A,,Mostly Cloudy,0,2013-10-07 01:06:00
9:22 PM,48.2,48.2,100,29.70,10.0,Calm,Calm,-,N/A,,Overcast,0,2013-10-07 01:22:00
9:43 PM,48.2,48.2,100,29.70,10.0,Calm,Calm,-,N/A,,Scattered Clouds,0,2013-10-07 01:43:00
10:02 PM,46.4,46.4,100,29.70,10.0,Calm,Calm,-,N/A,,Scattered Clouds,0,2013-10-07 02:02:00
10:26 PM,46.4,46.4,100,29.68,10.0,Calm,Calm,-,N/A,,Clear,0,2013-10-07 02:26:00
10:48 PM,44.6,44.6,100,29.69,10.0,SSE,3.5,-,N/A,,Scattered Clouds,160,2013-10-07 02:48:00
10:58 PM,46.4,46.4,100,29.69,10.0,Calm,Calm,-,N/A,,Mostly Cloudy,0,2013-10-07 02:58:00
11:39 PM,50.0,48.2,94,29.68,10.0,Calm,Calm,-,N/A,,Overcast,0,2013-10-07 03:39:00